[[{"header":{"parameterUnit":"m.s-1","parameterCategory":1,"la1":30.2991,"la2":30.254,"lo1":-89.0895,"lo2":-89.0444,"dy":0.0017,"dx":0.0017,"nx":28,"ny":28,"refTime":"2024-08-17T09:00:00:Z","depth":0,"parameterNumber":2,"parameterNumberName":"U-component_of_WINDS"},"data":[0,0,0,0,0,0,0,0,0,0,0,0,0,0,0,0,0,0,0,0,0,0,0,0,0,0,0,0,0,0,0,0,0,0,0,0,0,0,0,0,0,0,0,0,0,0,0,0,0,0,0,0,0,0,0,0,0,0,4.5107,4.5113,0,4.5687,4.5694,4.57,4.5822,4.5818,4.5813,4.5809,4.642,4.6439,4.6459,0,0,0,0,0,0,0,0,0,0,0,0,0,4.4117,4.4134,4.5106,4.5113,4.5121,4.5686,4.5694,4.5702,4.5823,4.5818,4.5812,4.5807,4.6413,4.6437,4.6461,0,0,0,0,0,0,0,0,0,0,0,0,0,4.4607,4.414,4.5105,4.5249,4.5267,4.5684,4.5694,4.5704,4.5824,4.5817,4.5811,4.5805,4.6405,4.6435,4.6465,4.6784,0,0,4.6558,4.6571,0,0,0,0,0,0,0,0,4.4579,4.4643,4.522,4.524,4.5261,4.5675,4.5569,4.6067,4.5826,4.5613,4.5809,4.5801,4.6178,4.6227,4.6351,4.6813,4.6839,4.656,4.6579,4.6592,4.6601,0,0,0,0,0,0,0,4.4545,4.4619,4.5336,4.5229,4.5254,4.5289,4.5351,4.5664,4.5926,4.5631,4.5641,4.5707,4.6188,4.6321,4.6366,4.6848,4.656,4.6587,4.6606,4.6617,4.7603,4.761,0,0,0,0,0,0,4.4483,4.459,4.5318,4.5354,4.4896,4.5312,4.5382,4.5549,4.5923,4.5973,4.5712,4.5711,4.6272,4.633,4.6388,4.6789,4.6592,4.662,4.6638,4.7595,4.7605,4.7613,0,0,0,0,0,0,4.4462,4.4547,4.5295,4.4975,4.5072,4.5336,4.5523,4.5564,4.5697,4.5984,4.6033,4.5799,4.6269,4.6345,4.6684,4.6812,4.6634,4.6662,4.7586,4.7598,4.7609,4.7591,0,0,0,0,0,0,4.4433,4.4539,4.466,4.4976,4.5089,4.5577,4.5531,4.558,4.5747,4.5751,4.6078,4.6127,4.627,4.6638,4.6714,4.685,4.6686,4.7576,4.7591,4.7605,4.7581,4.7601,4.7617,0,0,0,0,0,4.4397,4.4635,4.4665,4.4752,4.5245,4.5584,4.5649,4.5805,4.5757,4.5883,4.6067,4.6116,4.6783,4.6671,4.6759,4.6906,4.7569,4.7587,4.7604,4.7573,4.7597,4.7616,0,0,0,0,0,0,4.4334,4.4679,4.4717,4.5063,4.5292,4.5603,4.5768,4.5824,4.6077,4.607,4.6257,4.633,4.6659,4.6816,4.6685,4.7235,4.7174,4.721,4.7121,4.7146,4.7163,4.7121,4.6711,0,0,0,0,0,4.4358,4.4599,4.489,4.5168,4.528,4.5503,4.5657,4.5756,4.6004,4.6103,4.6313,4.6555,4.682,4.6991,4.725,4.7602,4.7678,4.7747,4.7764,4.7777,4.7808,4.8009,4.8044,4.7672,4.7671,4.7671,0,0,4.4415,4.4634,4.4776,4.5161,4.535,4.5601,4.5585,4.5851,4.604,4.6146,4.6478,4.6639,4.6922,4.7269,4.7433,4.7411,4.7927,4.78,4.7808,4.7833,4.8031,4.8066,4.8097,4.7684,4.7681,4.7679,0,0,4.4647,4.4834,4.5087,4.5275,4.5559,4.5706,4.5765,4.6068,4.6178,4.6512,4.6597,4.6826,4.7277,4.7476,4.7636,4.7938,4.7994,4.8017,4.8113,4.8306,4.8336,4.8363,4.8474,4.8511,4.8046,4.8046,4.8046,0,4.4685,4.506,4.5211,4.5473,4.5641,4.574,4.6,4.6177,4.6534,4.665,4.6617,4.7185,4.7383,4.7779,4.7851,4.7976,4.8055,4.7984,4.8318,4.8347,4.8374,4.8483,4.8524,4.8047,4.8047,4.8047,4.8047,0,4.5093,4.5351,4.5522,4.5857,4.6044,4.6303,4.6498,4.667,4.6751,4.6902,4.7243,4.7482,4.7792,4.7892,4.7977,4.8301,4.8278,4.8279,4.8223,4.8408,4.8514,4.8556,4.8049,4.8049,4.8048,4.8048,0,0,4.5308,4.5718,4.5779,4.5932,4.6251,4.6457,4.6721,4.7018,4.7163,4.7404,4.7634,4.8011,4.8013,4.8195,4.8302,4.8471,4.8698,4.8453,4.8462,4.8493,4.9074,4.9074,4.912,4.8734,4.8742,4.8749,4.9052,0,4.5582,4.6051,4.6194,4.659,4.6833,4.6928,4.7159,4.7382,4.7528,4.776,4.7924,4.8189,4.817,4.828,4.845,4.8634,4.8818,4.8614,4.8956,4.8966,4.8886,4.9175,4.9177,4.9451,4.9093,4.9101,4.9106,0,4.5967,4.6207,4.6625,4.6911,4.7019,4.7223,4.7506,4.7724,4.7979,4.8075,4.8273,4.8366,4.865,4.8572,4.8968,4.8826,4.8973,4.9084,4.9099,4.9142,4.9051,4.923,4.9542,4.9584,4.9171,4.9166,4.9161,0,4.6086,4.6515,4.6821,4.6949,4.7289,4.7431,4.758,4.7828,4.7997,4.8246,4.8358,4.8638,4.8793,4.901,4.9177,4.9104,4.956,4.9495,4.9652,4.9648,4.9749,4.9741,5.0093,4.9835,4.9834,4.9833,4.9832,0,4.638,4.6634,4.6879,4.7068,4.7355,4.7516,4.7798,4.7953,4.8172,4.8396,4.8496,4.8706,4.891,4.9148,4.9281,4.9591,4.9659,4.9748,4.9781,4.9742,4.9731,4.9846,4.9833,4.9844,4.9842,4.984,4.9838,0,4.6566,4.6739,4.7079,4.737,4.745,4.7649,4.7901,4.8091,4.8237,4.852,4.8596,4.883,4.9115,4.93,4.9665,4.9754,5.0094,5.012,5.0006,5.0023,5.017,5.0155,5.0613,5.0683,5.0372,5.0374,5.0377,0,4.6745,4.6941,4.725,4.7404,4.7552,4.78,4.7971,4.8137,4.8312,4.8615,4.8769,4.9058,4.9299,4.975,4.9957,5.0236,5.0273,5.0413,5.0317,5.0271,5.0281,5.0269,5.0291,5.0431,5.0434,5.0436,5.0437,0,4.7046,4.712,4.7359,4.7629,4.7828,4.805,4.8272,4.8394,4.8599,4.8791,4.908,4.9265,4.9634,4.9923,5.022,5.038,5.0446,5.0465,5.0517,5.0482,5.0409,5.0455,5.0054,5.0456,5.0454,5.0453,5.0452,5.0451,4.7238,4.7416,4.766,4.7924,4.8106,4.8311,4.8502,4.867,4.8912,4.9221,4.9305,4.9607,4.9859,5.0264,5.0428,5.067,5.0655,5.0729,5.0749,5.0766,5.0769,5.0364,5.0725,5.0725,5.0724,5.0724,5.0724,0,4.7547,4.7707,4.7947,4.8251,4.8459,4.8492,4.8739,4.8913,4.9175,4.94,4.9633,4.9965,5.0244,5.0469,5.0757,5.0908,5.0945,5.0979,5.0973,5.1009,5.0765,5.0693,5.0943,5.0943,5.0943,5.0943,5.0943,5.0943,4.7733,4.8037,4.814,4.8536,4.8697,4.8988,4.9127,4.9318,4.9498,4.9862,5.0091,5.0233,5.046,5.0765,5.1023,5.1083,5.1187,5.1214,5.1281,5.105,5.1026,5.1003,5.0936,5.1234,5.1234,5.1506,5.1508,5.151]},{"header":{"parameterUnit":"m.s-1","parameterCategory":1,"la1":30.2991,"la2":30.254,"lo1":-89.0895,"lo2":-89.0444,"dy":0.0017,"dx":0.0017,"nx":28,"ny":28,"refTime":"2024-08-17T09:00:00:Z","depth":0,"parameterNumber":3,"parameterNumberName":"V-component_of_WINDS"},"data":[0,0,0,0,0,0,0,0,0,0,0,0,0,0,0,0,0,0,0,0,0,0,0,0,0,0,0,0,0,0,0,0,0,0,0,0,0,0,0,0,0,0,0,0,0,0,0,0,0,0,0,0,0,0,0,0,0,0,-2.9773,-2.9774,0,-2.9839,-2.9839,-2.984,-2.9837,-2.9836,-2.9835,-2.9835,-2.9896,-2.9899,-2.9901,0,0,0,0,0,0,0,0,0,0,0,0,0,-2.9643,-2.9645,-2.9773,-2.9774,-2.9775,-2.9839,-2.9839,-2.984,-2.9837,-2.9836,-2.9835,-2.9834,-2.9896,-2.9899,-2.9902,0,0,0,0,0,0,0,0,0,0,0,0,0,-2.9703,-2.9646,-2.9773,-2.9781,-2.9783,-2.9838,-2.9839,-2.9841,-2.9838,-2.9836,-2.9835,-2.9834,-2.9895,-2.9898,-2.9902,-2.9952,0,0,-2.9913,-2.9915,0,0,0,0,0,0,0,0,-2.9699,-2.9708,-2.9779,-2.9781,-2.9783,-2.9829,-2.9816,-2.9878,-2.9838,-2.9817,-2.9835,-2.9833,-2.9875,-2.988,-2.9895,-2.9955,-2.9958,-2.9914,-2.9916,-2.9918,-2.9919,0,0,0,0,0,0,0,-2.9695,-2.9705,-2.9799,-2.978,-2.9782,-2.9781,-2.9788,-2.9828,-2.9852,-2.9818,-2.9818,-2.9826,-2.9875,-2.9891,-2.9896,-2.9959,-2.9914,-2.9917,-2.9919,-2.9921,-3.0065,-3.0067,0,0,0,0,0,0,-2.969,-2.9701,-2.9797,-2.9801,-2.9737,-2.9784,-2.9792,-2.9815,-2.9852,-2.9856,-2.9828,-2.9826,-2.9886,-2.9892,-2.9899,-2.9961,-2.9918,-2.9921,-2.9923,-3.0064,-3.0065,-3.0067,0,0,0,0,0,0,-2.9687,-2.9699,-2.9794,-2.9751,-2.9763,-2.9788,-2.9814,-2.9817,-2.9833,-2.9859,-2.9863,-2.984,-2.9885,-2.9893,-2.994,-2.9963,-2.9923,-2.9926,-3.0062,-3.0064,-3.0066,-3.0085,0,0,0,0,0,0,-2.9683,-2.9698,-2.9717,-2.9752,-2.9766,-2.9835,-2.9815,-2.9819,-2.984,-2.9839,-2.9871,-2.9875,-2.9884,-2.9934,-2.9943,-2.9967,-2.9929,-3.006,-3.0063,-3.0066,-3.0083,-3.0088,-3.0093,0,0,0,0,0,-2.9679,-2.9718,-2.9718,-2.973,-2.9791,-2.9837,-2.9844,-2.9855,-2.9842,-2.9862,-2.9879,-2.9874,-2.9959,-2.9939,-2.9949,-2.9975,-3.0058,-3.0062,-3.0065,-3.008,-3.0087,-3.0092,0,0,0,0,0,0,-2.9683,-2.9723,-2.9723,-2.9776,-2.9803,-2.9836,-2.9861,-2.9862,-2.9892,-2.9889,-2.99,-2.9908,-2.9954,-2.9969,-2.9946,-3.0026,-3.0007,-3.0013,-3.0015,-3.0021,-3.0026,-3.0021,-2.9932,0,0,0,0,0,-2.9691,-2.9726,-2.9758,-2.9801,-2.9815,-2.9836,-2.9856,-2.9863,-2.9891,-2.9902,-2.9922,-2.9948,-2.9981,-3.0002,-3.0033,-3.0085,-3.0092,-3.0108,-3.0113,-3.0117,-3.0121,-3.0151,-3.0159,-3.0079,-3.0079,-3.0079,0,0,-2.9706,-2.9732,-2.9753,-2.9803,-2.9825,-2.986,-2.9846,-2.9883,-2.9909,-2.9907,-2.9953,-2.9968,-2.9998,-3.0048,-3.0071,-3.0062,-3.0145,-3.0121,-3.0124,-3.0127,-3.0156,-3.0163,-3.017,-3.0081,-3.0081,-3.0081,0,0,-2.9751,-2.9775,-2.9814,-2.9837,-2.9872,-2.9886,-2.9896,-2.993,-2.9941,-2.9987,-2.9987,-3.0018,-3.0074,-3.0096,-3.0114,-3.0172,-3.0168,-3.0181,-3.0207,-3.0236,-3.0242,-3.0247,-3.0268,-3.0275,-3.0186,-3.0186,-3.0186,0,-2.9765,-2.9819,-2.9833,-2.9872,-2.9894,-2.9897,-2.9937,-2.9958,-3.0,-3.0015,-3.0005,-3.0077,-3.0097,-3.0153,-3.0167,-3.0182,-3.0193,-3.0177,-3.024,-3.0246,-3.0251,-3.0271,-3.0279,-3.0187,-3.0187,-3.0187,-3.0187,0,-2.9835,-2.9873,-2.99,-2.9944,-2.9969,-3.0008,-3.0027,-3.0051,-3.0056,-3.0071,-3.0119,-3.0145,-3.0182,-3.0196,-3.02,-3.0252,-3.0246,-3.0238,-3.0218,-3.026,-3.0279,-3.0286,-3.0189,-3.0189,-3.0188,-3.0188,0,0,-2.9882,-2.9936,-2.9946,-2.9967,-3.0007,-3.0036,-3.0075,-3.0114,-3.0134,-3.0164,-3.0197,-3.0246,-3.024,-3.0261,-3.0268,-3.0293,-3.0338,-3.0282,-3.0283,-3.0291,-3.0398,-3.0403,-3.0412,-3.0337,-3.0338,-3.0339,-3.0395,0,-2.9932,-3.0004,-3.0019,-3.008,-3.0116,-3.0121,-3.0155,-3.0183,-3.0199,-3.023,-3.0247,-3.0282,-3.027,-3.0284,-3.0309,-3.0327,-3.0359,-3.0323,-3.0366,-3.0368,-3.0358,-3.0421,-3.0427,-3.0478,-3.0403,-3.0404,-3.0405,0,-2.9999,-3.0033,-3.0099,-3.0137,-3.0152,-3.0183,-3.0221,-3.0251,-3.0283,-3.0293,-3.0318,-3.0323,-3.0364,-3.0344,-3.04,-3.0375,-3.0394,-3.0405,-3.0408,-3.0411,-3.0388,-3.0426,-3.0495,-3.0502,-3.0416,-3.0415,-3.0415,0,-3.0027,-3.009,-3.0138,-3.0156,-3.0201,-3.0222,-3.0242,-3.0273,-3.0296,-3.0329,-3.0344,-3.038,-3.0399,-3.0427,-3.0442,-3.0426,-3.0496,-3.0477,-3.0505,-3.0505,-3.0518,-3.0517,-3.059,-3.0532,-3.0532,-3.0531,-3.0531,0,-3.0081,-3.0121,-3.0152,-3.0181,-3.0227,-3.0244,-3.0288,-3.0307,-3.0335,-3.0367,-3.0373,-3.0403,-3.0421,-3.0454,-3.0465,-3.051,-3.0518,-3.0527,-3.0529,-3.0526,-3.0525,-3.0537,-3.0534,-3.0533,-3.0533,-3.0533,-3.0532,0,-3.0119,-3.0142,-3.0195,-3.0235,-3.0245,-3.0277,-3.031,-3.0339,-3.0356,-3.0397,-3.0408,-3.0434,-3.0473,-3.0491,-3.0538,-3.0545,-3.0596,-3.0596,-3.0586,-3.0587,-3.0613,-3.061,-3.0696,-3.0708,-3.0643,-3.0643,-3.0644,0,-3.0151,-3.0183,-3.0227,-3.0251,-3.0272,-3.0309,-3.0334,-3.0352,-3.0377,-3.0418,-3.0441,-3.0481,-3.0514,-3.0576,-3.0598,-3.0634,-3.0635,-3.0663,-3.064,-3.0636,-3.0635,-3.0633,-3.0636,-3.0666,-3.0667,-3.0667,-3.0668,0,-3.0206,-3.0217,-3.0253,-3.0294,-3.0325,-3.0357,-3.0389,-3.0407,-3.0431,-3.0459,-3.05,-3.0526,-3.0576,-3.0615,-3.0654,-3.0672,-3.0674,-3.0675,-3.0683,-3.068,-3.0672,-3.0677,-3.0597,-3.0673,-3.0672,-3.0672,-3.0671,-3.0671,-3.0242,-3.0271,-3.0308,-3.0349,-3.0376,-3.0406,-3.0435,-3.0458,-3.0493,-3.0537,-3.0546,-3.0589,-3.0622,-3.0674,-3.0695,-3.0728,-3.0722,-3.0733,-3.0736,-3.0739,-3.074,-3.0668,-3.0735,-3.0735,-3.0735,-3.0735,-3.0735,0,-3.0297,-3.0322,-3.036,-3.0406,-3.0438,-3.044,-3.0476,-3.0503,-3.0542,-3.0573,-3.0607,-3.0654,-3.0693,-3.072,-3.0759,-3.0781,-3.0783,-3.079,-3.0788,-3.0793,-3.0744,-3.0733,-3.0788,-3.0788,-3.0788,-3.0788,-3.0788,-3.0788,-3.033,-3.0379,-3.0395,-3.0458,-3.0482,-3.0527,-3.0547,-3.0575,-3.0601,-3.0655,-3.0688,-3.0706,-3.0736,-3.0777,-3.0813,-3.082,-3.0833,-3.0841,-3.0848,-3.0802,-3.0796,-3.079,-3.078,-3.0845,-3.0845,-3.0893,-3.0894,-3.0894]}]]